TimeCST,TemperatureF,Dew PointF,Humidity,Sea Level PressureIn,VisibilityMPH,Wind Direction,Wind SpeedMPH,Gust SpeedMPH,PrecipitationIn,Events,Conditions,WindDirDegrees,DateUTC
12:15 AM,16.3,10.9,79,30.04,10.0,NW,9.2,-,N/A,,Clear,310,2012-12-20 06:15:00
12:35 AM,15.1,9.3,78,30.04,10.0,NW,8.1,-,N/A,,Clear,310,2012-12-20 06:35:00
12:55 AM,14.0,8.2,78,30.04,10.0,NW,5.8,-,N/A,,Clear,310,2012-12-20 06:55:00
1:15 AM,13.6,7.7,77,30.03,10.0,WNW,8.1,-,N/A,,Clear,300,2012-12-20 07:15:00
1:35 AM,11.8,6.1,78,30.04,10.0,WNW,6.9,-,N/A,,Clear,300,2012-12-20 07:35:00
1:55 AM,11.1,5.5,78,30.04,10.0,WNW,8.1,-,N/A,,Clear,290,2012-12-20 07:55:00
2:15 AM,11.3,5.7,78,30.04,10.0,WNW,8.1,-,N/A,,Clear,300,2012-12-20 08:15:00
2:35 AM,13.3,6.6,75,30.04,10.0,NW,9.2,-,N/A,,Clear,310,2012-12-20 08:35:00
2:55 AM,14.0,6.6,72,30.04,10.0,NW,10.4,-,N/A,,Clear,310,2012-12-20 08:55:00
3:15 AM,14.9,6.6,70,30.05,10.0,NW,11.5,-,N/A,,Clear,310,2012-12-20 09:15:00
3:35 AM,15.3,6.6,69,30.05,10.0,NW,12.7,-,N/A,,Clear,310,2012-12-20 09:35:00
3:55 AM,14.5,6.1,69,30.06,10.0,NW,10.4,-,N/A,,Clear,310,2012-12-20 09:55:00
4:15 AM,14.2,5.9,70,30.07,10.0,WNW,10.4,-,N/A,,Clear,300,2012-12-20 10:15:00
4:35 AM,11.8,3.9,71,30.07,10.0,West,6.9,-,N/A,,Clear,280,2012-12-20 10:35:00
4:55 AM,11.5,4.1,72,30.08,10.0,WNW,9.2,-,N/A,,Clear,290,2012-12-20 10:55:00
5:15 AM,11.7,3.9,71,30.08,10.0,WNW,12.7,-,N/A,,Clear,290,2012-12-20 11:15:00
5:35 AM,10.9,3.6,72,30.09,10.0,WNW,10.4,-,N/A,,Clear,290,2012-12-20 11:35:00
5:55 AM,8.6,1.9,74,30.09,10.0,West,8.1,-,N/A,,Clear,280,2012-12-20 11:55:00
6:15 AM,8.6,1.8,74,30.10,10.0,West,9.2,-,N/A,,Clear,280,2012-12-20 12:15:00
6:35 AM,8.2,1.4,74,30.11,10.0,West,9.2,-,N/A,,Clear,280,2012-12-20 12:35:00
6:55 AM,7.5,0.7,74,30.11,10.0,West,10.4,-,N/A,,Clear,280,2012-12-20 12:55:00
7:15 AM,7.9,0.7,72,30.12,10.0,West,11.5,-,N/A,,Clear,280,2012-12-20 13:15:00
7:35 AM,7.5,0.3,72,30.12,10.0,West,8.1,-,N/A,,Clear,280,2012-12-20 13:35:00
7:55 AM,8.2,1.0,72,30.12,10.0,West,9.2,-,N/A,,Clear,280,2012-12-20 13:55:00
8:15 AM,9.1,1.6,71,30.12,10.0,WNW,9.2,-,N/A,,Clear,290,2012-12-20 14:15:00
8:35 AM,10.2,1.9,69,30.14,10.0,West,10.4,-,N/A,,Clear,280,2012-12-20 14:35:00
8:55 AM,10.4,1.9,69,30.14,10.0,West,10.4,-,N/A,,Clear,280,2012-12-20 14:55:00
9:15 AM,11.5,2.3,67,30.14,10.0,WNW,11.5,-,N/A,,Clear,290,2012-12-20 15:15:00
9:35 AM,12.9,2.5,63,30.15,10.0,WNW,11.5,-,N/A,,Clear,290,2012-12-20 15:35:00
9:55 AM,14.5,3.2,61,30.16,10.0,WNW,11.5,-,N/A,,Clear,290,2012-12-20 15:55:00
10:15 AM,16.9,3.9,57,30.16,10.0,WNW,10.4,-,N/A,,Clear,300,2012-12-20 16:15:00
10:35 AM,18.5,4.6,55,30.16,10.0,WNW,8.1,-,N/A,,Clear,300,2012-12-20 16:35:00
10:55 AM,19.4,5.0,54,30.16,10.0,WNW,12.7,-,N/A,,Clear,290,2012-12-20 16:55:00
11:15 AM,20.8,6.1,53,30.17,10.0,WNW,11.5,-,N/A,,Clear,290,2012-12-20 17:15:00
11:35 AM,22.1,7.5,54,30.16,10.0,WNW,10.4,-,N/A,,Clear,290,2012-12-20 17:35:00
11:55 AM,23.9,7.7,50,30.15,10.0,WNW,8.1,-,N/A,,Clear,290,2012-12-20 17:55:00
12:15 PM,25.3,9.3,51,30.14,10.0,WNW,5.8,-,N/A,,Clear,300,2012-12-20 18:15:00
12:35 PM,26.6,9.3,48,30.14,10.0,WNW,10.4,-,N/A,,Clear,290,2012-12-20 18:35:00
12:55 PM,27.5,10.6,49,30.14,10.0,WNW,10.4,-,N/A,,Clear,290,2012-12-20 18:55:00
1:15 PM,28.2,9.7,46,30.12,10.0,WNW,9.2,16.1,N/A,,Clear,290,2012-12-20 19:15:00
1:35 PM,28.0,11.1,49,30.11,10.0,West,10.4,-,N/A,,Clear,280,2012-12-20 19:35:00
1:55 PM,28.4,10.4,47,30.11,10.0,WNW,11.5,-,N/A,,Clear,290,2012-12-20 19:55:00
2:15 PM,29.1,11.5,48,30.10,10.0,WNW,6.9,-,N/A,,Clear,300,2012-12-20 20:15:00
2:35 PM,30.0,12.2,48,30.10,10.0,WNW,6.9,-,N/A,,Clear,290,2012-12-20 20:35:00
3:15 PM,31.1,14.2,50,30.10,10.0,West,10.4,-,N/A,,Clear,280,2012-12-20 21:15:00
3:35 PM,31.5,14.7,50,30.10,10.0,West,9.2,-,N/A,,Clear,270,2012-12-20 21:35:00
3:55 PM,31.1,15.3,52,30.11,10.0,West,8.1,-,N/A,,Clear,260,2012-12-20 21:55:00
4:15 PM,30.4,15.3,53,30.10,10.0,West,6.9,-,N/A,,Clear,270,2012-12-20 22:15:00
4:35 PM,29.3,15.3,56,30.11,10.0,West,5.8,-,N/A,,Clear,270,2012-12-20 22:35:00
4:55 PM,28.2,15.4,59,30.11,10.0,West,4.6,-,N/A,,Clear,270,2012-12-20 22:55:00
5:15 PM,25.9,14.9,63,30.11,10.0,West,5.8,-,N/A,,Clear,270,2012-12-20 23:15:00
5:35 PM,25.3,14.9,65,30.11,10.0,West,4.6,-,N/A,,Clear,280,2012-12-20 23:35:00
5:55 PM,23.7,14.4,67,30.11,10.0,West,4.6,-,N/A,,Clear,280,2012-12-20 23:55:00
6:15 PM,23.0,14.2,69,30.11,10.0,WSW,5.8,-,N/A,,Clear,250,2012-12-21 00:15:00
6:35 PM,20.8,13.3,73,30.11,10.0,SW,4.6,-,N/A,,Clear,230,2012-12-21 00:35:00
6:55 PM,20.5,13.6,75,30.11,10.0,WSW,4.6,-,N/A,,Clear,250,2012-12-21 00:55:00
7:15 PM,19.9,13.1,75,30.11,10.0,WSW,3.5,-,N/A,,Clear,250,2012-12-21 01:15:00
7:35 PM,20.1,13.1,74,30.12,10.0,SW,3.5,-,N/A,,Clear,230,2012-12-21 01:35:00
7:55 PM,17.2,10.9,76,30.12,10.0,West,3.5,-,N/A,,Clear,270,2012-12-21 01:55:00
8:15 PM,19.0,12.2,75,30.12,10.0,West,4.6,-,N/A,,Clear,260,2012-12-21 02:15:00
8:35 PM,15.4,9.3,77,30.12,10.0,West,4.6,-,N/A,,Clear,280,2012-12-21 02:35:00
8:55 PM,15.4,10.9,82,30.14,10.0,West,3.5,-,N/A,,Clear,280,2012-12-21 02:55:00
9:15 PM,14.9,10.8,84,30.14,10.0,West,3.5,-,N/A,,Clear,260,2012-12-21 03:15:00
9:35 PM,18.1,11.5,75,30.13,10.0,WSW,4.6,-,N/A,,Clear,240,2012-12-21 03:35:00
9:55 PM,17.8,11.3,76,30.12,10.0,West,4.6,-,N/A,,Clear,260,2012-12-21 03:55:00
10:15 PM,16.7,10.6,77,30.13,10.0,Calm,Calm,-,N/A,,Clear,0,2012-12-21 04:15:00
10:35 PM,15.8,10.2,79,30.14,10.0,West,3.5,-,N/A,,Clear,260,2012-12-21 04:35:00
10:55 PM,13.1,8.6,82,30.14,10.0,West,4.6,-,N/A,,Clear,270,2012-12-21 04:55:00
11:15 PM,10.4,7.0,86,30.15,10.0,West,4.6,-,N/A,,Clear,280,2012-12-21 05:15:00
11:35 PM,9.3,5.7,85,30.15,10.0,WNW,4.6,-,N/A,,Clear,290,2012-12-21 05:35:00
11:55 PM,11.3,7.9,86,30.15,10.0,West,4.6,-,N/A,,Clear,260,2012-12-21 05:55:00